Weather History for KTVL - November, 2014

Change the Weather History Date:

Thursday, November 27, 2014

  Actual Average Record
Temperature  
Mean Temperature 48 °F 33 °F  
Max Temperature 64 °F 46 °F 64 °F (2014)
Min Temperature 32 °F 19 °F 0 °F (1994)
Degree Days  
Heating Degree Days 17 32  
Month to date heating degree days 616 762  
Since 1 July heating degree days 1377 1994  
Cooling Degree Days 0 0  
Month to date cooling degree days 0 0  
Year to date cooling degree days 99 31  
Moisture  
Dew Point 21 °F    
Average Humidity 46    
Maximum Humidity 75    
Minimum Humidity 16    
Precipitation  
Precipitation 0.00 in - 1.22 in (2004)
Month to date precipitation 0.74  
Year to date precipitation 17.55  
Sea Level Pressure  
Sea Level Pressure 30.19 in    
Wind  
Wind Speed 5 mph (South)    
Max Wind Speed 24 mph    
Max Gust Speed 41 mph    
Visibility 10 miles    
Events      
T = Trace of Precipitation, MM = Missing Value Source: NWS Daily Summary

Daily Weather History Graph

Daily Weather History Graph

Search for Another Location

Airport or City:

Trip Planner

Search our weather history database for the weather conditions in past years. The results will help you decide how hot, cold, wet, or windy it might be!

Date:

Astronomy

Nov. 27, 2014 Rise Set
Actual Time 6:55 AM PST 4:39 PM PST
Civil Twilight 6:26 AM PST 5:08 PM PST
Nautical Twilight 5:53 AM PST 5:41 PM PST
Astronomical Twilight 5:21 AM PST 6:13 PM PST
Moon 11:15 AM PST (11/27) 10:23 PM PST (11/27)
Length of Visible Light 10h 42m
Length of Day
9h 43m
Waxing Crescent, 32% of the Moon is Illuminated
Nov 27
Waxing Crescent
Nov 29
First Quarter
Dec 6
Full
Dec 14
Last Quarter
Dec 21
New

Hourly Weather History & Observations

Time (PST) Temp. Windchill Dew Point Humidity Pressure Visibility Wind Dir Wind Speed Gust Speed Precip Events Conditions
12:53 AM 33.1 °F - 25.0 °F 72% 30.30 in 10.0 mi Calm Calm - N/A   Clear
1:53 AM 32.0 °F - 24.1 °F 73% 30.30 in 10.0 mi Calm Calm - N/A   Clear
2:53 AM 33.1 °F - 25.0 °F 72% 30.26 in 10.0 mi Calm Calm - N/A   Clear
3:53 AM 36.0 °F - 25.0 °F 64% 30.26 in 10.0 mi Calm Calm - N/A   Clear
4:53 AM 39.9 °F 36.7 °F 25.0 °F 55% 30.27 in 10.0 mi Variable 4.6 mph - N/A   Clear
5:53 AM 44.1 °F 42.5 °F 24.1 °F 45% 30.27 in 10.0 mi SW 3.5 mph - N/A   Clear
6:53 AM 44.1 °F - 24.1 °F 45% 30.28 in 10.0 mi Calm Calm - N/A   Clear
7:53 AM 43.0 °F - 25.0 °F 49% 30.30 in 10.0 mi Calm Calm - N/A   Clear
8:53 AM 55.9 °F - 21.9 °F 27% 30.27 in 10.0 mi South 9.2 mph - N/A   Clear
9:53 AM 60.1 °F - 19.9 °F 21% 30.26 in 10.0 mi South 11.5 mph - N/A   Clear
10:53 AM 63.0 °F - 21.0 °F 20% 30.23 in 10.0 mi SSW 9.2 mph - N/A   Clear
11:53 AM 63.0 °F - 19.0 °F 18% 30.21 in 10.0 mi South 13.8 mph 27.6 mph N/A   Clear
12:53 PM 63.0 °F - 18.0 °F 18% 30.19 in 10.0 mi South 18.4 mph 26.5 mph N/A   Clear
1:53 PM 63.0 °F - 16.0 °F 16% 30.17 in 10.0 mi SSW 10.4 mph 27.6 mph N/A   Clear
2:53 PM 62.1 °F - 15.1 °F 16% 30.16 in 10.0 mi North - - N/A   Clear
3:53 PM 60.1 °F - 18.0 °F 20% 30.16 in 10.0 mi South 4.6 mph 16.1 mph N/A   Clear
4:53 PM 52.0 °F - 21.9 °F 31% 30.16 in 10.0 mi Calm Calm - N/A   Clear
5:53 PM 46.9 °F - 24.1 °F 41% 30.15 in 10.0 mi Calm Calm - N/A   Clear
6:53 PM 44.1 °F 42.5 °F 21.9 °F 42% 30.15 in 10.0 mi Variable 3.5 mph - N/A   Clear
7:53 PM 51.1 °F - 17.1 °F 26% 30.12 in 10.0 mi Variable 4.6 mph 19.6 mph N/A   Clear
8:53 PM 50.0 °F - 17.1 °F 27% 30.07 in 10.0 mi North - - N/A   Clear
9:53 PM 53.1 °F - 18.0 °F 25% 30.05 in 10.0 mi South 10.4 mph - N/A   Clear
10:53 PM 52.0 °F - 18.0 °F 26% 30.04 in 10.0 mi Variable 4.6 mph - N/A   Clear
11:53 PM 52.0 °F - 15.1 °F 23% 30.03 in 10.0 mi SE 9.2 mph 18.4 mph N/A   Clear